Theta_e
336 334 333 332 332 331 330 328 328 327 325 324 325 325 324 324 325 325 326 327 327 327 324 326 325 325 325 324 324 325 324 325 324 326 328 327 328 327 331 328 331 330 330
333 333 332 330 328 326 328 328 328 326 326 324 325 325 325 326 326 326 326 326 326 326 323 324 324 325 326 326 326 326 325 325 323 328 328 326 328 326 329 327 330 331 328
332 329 325 324 327 329 330 329 327 328 325 325 326 327 327 327 327 326 325 326 326 326 326 325 324 324 325 325 325 325 325 325 325 326 326 327 326 327 328 328 327 325 326
327 324 326 328 329 330 330 329 327 326 327 327 327 327 327 327 326 326 327 327 326 327 326 326 326 325 324 324 325 325 325 324 326 327 325 326 326 325 326 325 325 325 323
326 326 328 328 329 330 329 329 327 327 327 327 327 328 328 327 326 326 326 328 327 326 326 327 327 326 325 326 325 325 325 324 326 324 326 325 324 324 324 324 323 320 320
327 328 328 329 330 329 328 329 327 327 327 327 326 327 327 324 324 326 327 328 329 329 327 326 327 327 327 327 327 327 325 324 326 325 325 325 322 323 323 322 321 320 320
328 328 328 329 329 329 326 325 327 326 326 326 326 327 325 326 325 325 328 329 329 329 328 327 327 327 327 326 326 326 326 326 325 325 324 325 324 322 322 321 321 320 321
329 329 329 330 329 328 326 326 327 326 326 327 328 326 325 327 329 329 329 329 329 327 327 327 327 326 326 327 327 326 326 326 326 325 325 325 324 323 322 322 321 321 320
330 330 329 328 328 328 328 327 327 326 326 328 327 325 327 328 328 329 329 328 328 327 327 328 327 327 327 326 325 324 323 325 324 324 324 324 324 324 323 322 321 321 319
330 329 329 329 329 328 327 328 328 327 328 328 327 324 327 328 328 328 329 328 327 327 327 327 327 327 327 325 326 324 325 324 325 325 325 324 324 323 322 322 322 322 321
329 329 329 329 329 329 327 328 328 328 328 328 326 324 325 326 328 328 328 328 326 326 326 327 327 327 326 326 325 325 324 325 325 325 324 323 323 323 323 322 322 322 321
329 329 329 330 330 330 329 327 328 328 328 328 327 324 324 325 328 328 328 327 326 325 325 326 326 325 324 324 324 324 324 324 324 324 323 323 323 323 322 322 322 321 317
329 329 329 330 330 330 328 328 327 327 327 327 328 326 324 324 327 326 326 326 325 324 324 327 325 323 323 323 323 323 323 323 323 323 323 323 323 323 323 322 321 319 318
329 330 330 331 329 331 328 328 328 328 328 326 328 327 326 324 327 326 325 325 324 324 325 326 325 324 322 323 322 323 323 323 322 322 323 323 323 323 322 321 319 318 316
329 330 330 331 329 330 328 328 328 328 327 327 327 327 326 324 326 325 325 325 325 324 324 325 325 323 323 323 323 323 323 323 322 322 323 323 323 323 320 316 313 312 313
328 329 331 330 329 329 328 327 328 329 328 328 327 327 327 325 325 326 325 325 325 325 325 325 325 324 323 323 323 323 324 323 324 324 323 323 323 319 316 314 314 315 316
327 327 331 331 330 327 326 327 326 329 330 330 328 328 327 325 326 326 326 325 325 325 325 325 325 325 324 323 323 323 323 324 324 324 323 322 320 318 318 317 319 320 320
327 326 329 331 331 329 324 326 326 328 329 330 330 329 326 325 326 326 326 325 324 324 324 323 324 324 323 324 324 323 323 323 323 323 321 319 318 318 320 321 320 320 321
326 326 328 330 331 330 328 324 327 328 329 329 329 328 326 325 326 326 326 324 324 324 324 325 325 325 326 325 325 324 324 324 323 323 322 321 321 321 322 322 322 321 320
325 325 325 328 330 331 330 327 325 327 328 328 328 327 326 326 326 326 326 325 324 324 324 323 323 324 325 325 325 325 325 324 323 322 322 322 322 322 322 322 322 321 319
326 326 325 325 328 329 329 328 327 323 327 326 327 327 325 323 324 325 326 326 325 324 324 324 323 322 322 324 324 324 325 325 324 324 324 323 323 323 323 323 322 320 317
326 327 327 325 325 327 329 329 327 327 327 325 325 325 326 326 325 324 323 324 325 325 325 323 322 322 322 320 320 323 323 324 324 324 324 323 322 322 322 320 318 319 321
327 327 327 327 326 326 327 329 328 327 326 328 327 327 326 326 325 325 324 323 322 320 321 324 325 323 321 320 319 318 318 319 320 322 322 321 320 319 318 320 323 323 324
328 328 327 328 328 328 327 327 328 328 326 326 327 328 328 328 328 328 328 328 327 326 324 321 319 319 324 324 322 320 320 320 316 314 314 315 316 318 320 322 325 326 326
328 327 327 327 328 328 328 328 328 328 328 327 326 327 328 328 329 328 328 326 326 327 327 327 326 324 319 315 315 318 320 322 323 323 323 324 324 325 326 326 327 327 326
329 327 327 327 327 327 327 327 327 327 327 328 328 328 327 327 327 328 328 328 328 328 327 327 326 326 327 326 324 321 317 315 314 316 320 322 323 323 324 324 325 326 326
Wind_Speed
21 20 19 16 14 12 10 10 9 8 8 8 8 8 7 6 5 5 7 9 9 8 8 7 7 11 12 11 11 13 18 17 14 14 12 10 10 11 15 13 14 19 19
20 17 15 13 12 11 10 9 10 11 9 9 9 7 6 4 3 4 7 7 7 8 10 10 7 9 11 11 9 11 18 15 14 22 20 17 17 14 16 16 18 21 23
19 15 14 13 12 11 9 10 12 11 10 10 9 7 4 2 2 4 5 6 7 8 8 8 8 10 11 11 10 15 17 14 13 25 25 19 19 16 25 23 25 24 22
19 17 15 13 10 9 8 11 13 13 11 10 7 5 1 1 3 4 5 6 5 6 8 7 7 11 13 15 17 17 18 13 18 26 23 23 19 15 18 25 35 37 36
20 15 14 11 9 8 9 14 14 13 10 7 5 2 2 5 4 4 4 4 4 5 6 6 5 10 14 16 20 21 19 18 24 26 27 22 20 23 29 32 31 37 34
19 15 14 12 8 7 11 15 16 13 9 6 3 2 6 2 2 4 4 3 5 7 5 6 5 9 13 12 18 20 20 25 28 29 29 26 25 27 30 34 41 38 35
19 16 13 10 8 10 12 15 14 10 8 8 4 4 2 2 2 4 3 1 2 4 4 5 11 13 14 17 16 16 17 19 19 27 29 28 32 35 41 44 40 41 42
18 15 12 8 9 11 15 15 12 10 8 6 2 1 1 2 4 4 3 2 4 5 5 4 10 16 17 20 21 20 18 17 20 22 24 29 27 29 35 40 41 37 30
18 15 11 8 9 11 15 16 12 11 8 5 2 2 4 4 4 3 4 4 5 6 5 6 8 9 10 19 23 21 21 19 17 18 22 27 28 20 33 37 36 30 29
18 15 9 8 8 8 13 14 11 11 8 5 3 5 6 5 4 3 5 4 4 7 9 9 9 10 9 15 19 22 26 26 23 22 22 27 26 31 34 29 29 25 27
16 12 10 10 8 8 10 13 12 12 10 7 5 7 6 5 4 5 5 4 5 7 10 11 10 12 11 11 18 18 23 24 20 24 27 27 27 33 30 22 21 20 23
17 12 11 11 10 9 9 9 11 11 10 9 8 9 7 4 5 5 6 5 6 6 11 12 14 14 13 14 15 14 20 23 22 25 26 29 31 33 26 21 16 16 17
18 14 13 11 11 8 8 8 9 9 10 11 11 8 7 5 5 6 5 3 5 7 11 12 18 16 18 18 18 20 22 22 24 30 36 33 30 28 23 21 19 22 15
18 16 13 12 12 9 8 6 4 5 10 12 12 10 8 7 6 5 3 2 8 10 16 16 17 18 18 19 21 21 24 30 36 35 32 30 24 24 23 22 22 24 22
19 17 16 13 12 9 9 7 3 3 2 5 9 9 8 8 7 5 3 2 9 14 21 18 20 21 20 23 23 24 27 30 30 26 27 24 24 23 24 22 20 22 22
20 19 18 15 12 10 10 10 7 5 5 4 2 3 3 7 7 7 6 7 11 17 20 20 20 21 21 23 24 24 24 26 23 22 24 23 25 26 23 21 21 21 19
20 19 19 19 14 11 11 12 11 7 5 4 4 3 5 7 11 10 8 11 11 15 18 17 19 19 21 23 23 23 22 21 21 23 24 25 26 22 20 21 20 20 20
21 17 19 19 16 12 10 11 11 7 3 3 4 3 5 9 13 13 11 13 12 11 16 17 19 21 22 23 24 22 21 22 23 23 25 24 24 23 22 21 21 21 20
22 18 18 19 18 14 9 12 11 9 4 2 6 6 7 11 15 14 13 11 12 12 12 14 16 19 21 23 22 24 24 24 25 26 27 26 24 23 23 22 22 22 22
22 20 16 18 19 17 13 12 14 11 8 5 7 6 6 11 16 18 16 14 14 12 10 9 10 13 15 21 24 24 24 24 26 27 29 28 26 26 26 24 24 25 25
25 22 21 17 18 19 17 13 12 13 12 9 7 7 5 3 7 12 13 13 14 14 14 13 12 11 12 15 19 22 25 27 29 29 29 30 30 30 29 28 27 27 27
24 23 22 21 20 19 20 17 13 13 13 13 12 11 11 12 10 9 9 11 11 12 12 14 15 16 17 17 17 19 21 22 26 28 28 28 29 29 28 29 28 28 29
21 21 20 20 20 20 20 20 19 15 14 13 12 13 13 13 13 13 12 11 11 11 13 16 18 19 19 20 20 22 24 26 26 27 28 29 30 30 30 31 31 33 35
19 20 20 17 16 16 18 20 21 19 16 14 14 15 15 15 14 13 13 15 15 15 15 17 19 21 23 25 26 26 26 26 27 29 29 30 31 32 33 35 36 38 38
12 17 17 14 13 14 16 17 19 21 21 20 18 19 19 20 20 20 19 17 17 18 19 20 21 20 23 25 27 29 30 30 31 31 32 34 36 37 38 39 40 41 41
10 11 14 12 12 12 13 15 15 17 19 21 22 24 24 24 25 25 26 27 27 27 26 26 25 25 25 26 27 28 30 32 34 36 38 40 42 44 45 47 47 48 48
Wind_Direction
164 161 161 165 169 176 191 203 209 194 166 166 174 184 185 196 200 221 232 240 247 230 230 231 240 220 214 219 218 224 208 213 208 171 162 153 148 155 151 164 155 170 174
162 162 164 167 172 176 178 180 171 163 160 166 164 163 163 153 187 233 246 241 234 230 229 227 235 215 213 207 227 186 177 192 202 155 153 137 128 133 143 146 158 173 168
163 165 161 159 160 163 165 167 167 169 167 158 148 141 139 150 238 266 237 235 234 237 244 231 224 213 213 204 207 182 176 182 197 162 147 144 131 142 148 152 151 141 146
163 152 153 154 161 175 179 173 166 165 155 148 143 150 146 336 299 252 235 238 249 227 218 228 224 211 206 213 203 187 173 181 171 168 155 144 139 154 163 155 149 156 154
163 158 156 164 177 194 191 173 168 166 167 164 146 114 331 315 263 233 227 225 222 234 215 211 204 208 205 210 203 194 189 187 170 167 151 151 154 161 162 163 164 144 146
163 158 170 182 183 186 174 174 174 172 176 173 184 316 325 301 263 211 208 230 272 241 219 181 171 150 147 164 191 204 202 185 175 167 161 157 159 167 166 158 150 147 144
160 174 184 183 186 176 170 167 172 183 175 179 217 314 331 298 239 190 181 195 128 158 168 168 154 143 149 142 151 162 171 187 191 178 168 167 160 155 156 155 155 158 157
181 189 189 189 182 184 181 174 180 186 179 185 257 347 55 114 126 131 129 112 125 130 126 137 176 172 156 154 155 155 168 180 185 184 179 171 167 161 170 165 164 161 159
192 191 180 181 187 185 185 187 193 188 186 195 218 140 126 106 126 126 112 123 121 131 127 134 160 176 180 181 169 164 155 162 171 181 185 175 178 181 173 162 162 167 164
190 185 185 188 186 179 182 186 192 192 190 204 202 162 133 111 108 111 116 117 123 127 127 126 146 154 161 172 182 171 168 168 170 176 186 183 183 176 169 167 166 170 171
186 188 191 193 184 176 178 194 199 195 199 201 183 168 145 118 120 113 109 96 79 121 130 133 119 130 134 138 178 175 176 168 175 180 177 174 167 170 169 173 178 184 175
179 187 188 195 188 185 182 184 194 200 202 197 186 177 165 142 136 122 109 103 86 123 142 137 127 126 127 129 139 166 164 168 171 173 168 162 163 165 173 177 180 178 178
183 189 190 191 186 189 190 192 197 198 206 206 191 195 190 178 154 137 145 130 126 139 151 139 126 125 127 130 135 146 161 160 170 161 157 157 164 167 174 177 176 176 175
187 196 195 194 187 191 192 200 212 210 204 203 201 202 200 191 176 166 162 145 150 150 147 138 133 134 134 142 145 137 141 147 153 159 158 157 164 169 174 174 177 182 190
189 199 198 195 192 190 187 186 157 142 173 209 213 215 216 204 189 170 155 151 150 154 152 149 144 150 145 150 157 159 158 155 165 166 164 167 173 173 174 180 185 191 199
194 203 202 195 190 191 187 177 168 151 127 118 127 185 210 198 196 177 163 157 156 157 155 157 157 160 158 155 161 160 165 171 171 176 183 181 177 178 184 189 192 201 207
201 212 208 203 195 190 188 186 186 176 160 134 128 150 177 176 181 174 166 153 156 167 173 169 169 170 174 167 169 173 172 174 182 186 185 185 186 191 196 199 204 212 219
209 219 218 211 205 198 193 186 188 189 171 182 168 159 175 171 174 174 173 165 164 159 179 179 177 182 185 184 182 182 180 185 188 191 191 193 198 206 210 213 217 224 230
212 219 220 216 213 209 197 190 188 188 195 268 192 184 173 171 174 182 188 186 176 173 167 179 191 193 195 199 196 193 196 198 198 199 200 206 212 218 223 229 236 242 249
212 220 222 223 221 214 208 205 203 206 209 212 195 184 179 183 186 191 196 196 198 203 200 193 194 202 202 203 205 205 207 207 207 207 211 217 225 232 238 244 251 255 256
215 217 220 221 226 225 218 212 211 209 212 212 211 215 213 208 204 214 214 212 208 206 208 210 213 214 215 218 220 222 225 224 222 222 225 230 235 237 241 248 254 257 261
219 221 223 224 226 230 228 224 218 217 218 220 222 226 232 236 239 241 238 234 232 228 227 228 226 224 222 221 222 226 228 228 227 228 230 233 236 240 245 251 255 259 264
216 227 227 229 233 236 235 233 230 226 224 223 224 229 235 242 249 253 255 252 249 246 239 236 235 234 233 234 234 233 233 231 230 231 234 237 241 244 246 251 257 263 268
214 220 226 226 234 246 250 244 239 238 237 231 230 237 241 246 253 259 265 269 266 261 256 252 250 248 245 242 241 241 242 241 240 240 241 244 248 251 255 260 264 269 273
205 219 224 216 236 254 262 264 259 251 249 251 254 255 256 260 262 263 263 263 266 268 268 265 260 258 256 254 253 253 254 253 250 249 249 250 253 256 258 259 263 267 272
136 182 201 204 220 239 247 252 254 257 257 259 263 268 273 277 278 277 275 272 271 271 272 272 271 268 265 263 261 260 258 256 255 254 255 256 257 258 259 261 264 267 270